Weather reports worldwide

Advertisment
Cluanie Inn No 3, United Kingdom (99117): temperature & dewpoint: 11.08.2017 08:00:00 - 17.08.2017 08:00:00 (BST)Cluanie Inn No 3, United Kingdom (99117): visibility: 11.08.2017 08:00:00 - 17.08.2017 08:00:00 (BST)Cluanie Inn No 3, United Kingdom (99117): precipitation: 11.08.2017 08:00:00 - 17.08.2017 08:00:00 (BST)
Date & Time tt [°C] td [°C] vv [km] rr [mm]
17.08.2017 08:00:00 12,9 8,0 - 0,0
17.08.2017 07:00:00 12,5 8,0 - 0,0
17.08.2017 06:00:00 12,6 7,2 - 0,0
17.08.2017 05:00:00 12,6 8,4 - 0,0
17.08.2017 04:00:00 12,6 8,0 - 0,0
17.08.2017 03:00:00 12,7 8,0 - 0,0
17.08.2017 02:00:00 12,8 7,8 - 0,0
17.08.2017 01:00:00 12,8 8,6 - 0,2
17.08.2017 00:00:00 13,3 9,8 - 0,4
16.08.2017 23:00:00 13,8 11,4 - 3,4
16.08.2017 22:00:00 15,3 12,5 - 2,4
16.08.2017 21:00:00 15,2 12,3 - 0,2
16.08.2017 20:00:00 13,7 12,6 - 0,6
16.08.2017 19:00:00 13,3 12,2 - 1,8
16.08.2017 18:00:00 13,2 11,8 - 1,2
16.08.2017 17:00:00 13,4 11,4 - 0,4
16.08.2017 16:00:00 12,3 11,4 - 0,8
16.08.2017 15:00:00 12,6 10,7 - 0,2
16.08.2017 14:00:00 12,7 9,8 - 0,2
16.08.2017 13:00:00 12,2 9,5 - 0,2
16.08.2017 12:00:00 13,5 7,7 - 0,0
16.08.2017 11:00:00 13,2 8,3 - 0,2
16.08.2017 10:00:00 13,0 9,3 - 0,0
16.08.2017 09:00:00 11,7 8,1 - 0,0
16.08.2017 08:00:00 11,6 8,0 - 0,0
16.08.2017 07:00:00 11,7 7,3 - 0,0
16.08.2017 06:00:00 10,3 7,6 - 0,0
16.08.2017 05:00:00 10,5 7,6 - 0,0
16.08.2017 04:00:00 9,9 7,5 - 0,2
16.08.2017 03:00:00 10,1 8,2 - 0,0
16.08.2017 02:00:00 9,7 8,4 - 0,2
16.08.2017 01:00:00 10,3 8,5 - 0,4
16.08.2017 00:00:00 11,2 7,8 - 0,8
15.08.2017 23:00:00 11,0 8,4 - 0,0
15.08.2017 22:00:00 11,2 8,2 - 0,4
15.08.2017 21:00:00 11,6 7,8 - 0,0
15.08.2017 20:00:00 11,3 8,6 - 0,2
15.08.2017 19:00:00 11,8 8,1 - 0,0
15.08.2017 18:00:00 12,3 7,8 - 0,0
15.08.2017 17:00:00 12,1 9,2 - 0,2
15.08.2017 16:00:00 14,6 10,3 - 0,4
15.08.2017 15:00:00 12,4 9,9 - 0,8
15.08.2017 14:00:00 13,6 8,0 - 0,2
15.08.2017 13:00:00 13,6 9,0 - 0,0
15.08.2017 12:00:00 15,0 7,8 - 0,0
15.08.2017 11:00:00 14,0 6,7 - 0,0
15.08.2017 10:00:00 12,8 6,8 10 0,0
15.08.2017 09:00:00 13,1 8,1 - 0,0
15.08.2017 08:00:00 12,1 7,9 - 0,0
15.08.2017 07:00:00 10,2 8,7 - 0,0
15.08.2017 06:00:00 10,4 8,1 - 0,0
15.08.2017 05:00:00 10,9 7,7 - 0,0
15.08.2017 04:00:00 11,0 8,2 - 0,0
15.08.2017 03:00:00 11,0 9,7 - 0,0
15.08.2017 02:00:00 10,2 9,2 - 0,0
15.08.2017 01:00:00 10,7 9,3 - 0,0
15.08.2017 00:00:00 11,3 9,7 - 0,0
14.08.2017 23:00:00 12,0 10,0 - 0,0
14.08.2017 22:00:00 12,4 10,4 10 0,0
14.08.2017 21:00:00 13,8 10,8 - 0,2
14.08.2017 20:00:00 14,3 11,9 - 0,2
14.08.2017 19:00:00 14,9 12,0 - 1,2
14.08.2017 18:00:00 14,4 13,2 - 0,4
14.08.2017 17:00:00 14,1 12,9 - 0,4
14.08.2017 16:00:00 13,1 12,5 - 0,0
14.08.2017 15:00:00 12,8 12,3 - 0,6
14.08.2017 14:00:00 11,7 11,0 - 0,6
14.08.2017 13:00:00 11,4 10,3 - 0,6
14.08.2017 12:00:00 10,9 10,0 - 2,8
14.08.2017 11:00:00 10,3 9,3 - 1,6
14.08.2017 10:00:00 9,9 8,7 - 1,0
14.08.2017 09:00:00 9,5 8,2 - 0,8
14.08.2017 08:00:00 9,3 8,1 - 1,6
14.08.2017 07:00:00 9,3 7,6 - 1,0
14.08.2017 06:00:00 9,2 7,2 - 0,4
14.08.2017 05:00:00 10,0 6,3 - 0,0
14.08.2017 04:00:00 9,7 7,1 - 0,0
14.08.2017 03:00:00 9,6 7,1 - 0,0
14.08.2017 02:00:00 9,4 7,4 - 0,0
14.08.2017 01:00:00 9,7 7,5 - 0,0
14.08.2017 00:00:00 8,1 6,5 - 0,0
13.08.2017 23:00:00 8,8 6,0 - 0,0
13.08.2017 22:00:00 9,8 7,1 - 0,0
13.08.2017 21:00:00 11,1 6,7 - 0,0
13.08.2017 20:00:00 12,0 7,4 - 0,0
13.08.2017 19:00:00 14,0 7,1 - 0,0
13.08.2017 18:00:00 12,7 6,4 - 0,0
13.08.2017 17:00:00 12,7 6,2 - 0,0
13.08.2017 16:00:00 12,3 7,8 - 0,2
13.08.2017 15:00:00 12,5 7,4 - 0,0
13.08.2017 14:00:00 12,3 6,6 - 0,0
13.08.2017 13:00:00 13,6 8,4 - 0,0
13.08.2017 12:00:00 10,6 7,1 - 0,2
13.08.2017 11:00:00 10,3 8,1 - 0,0
13.08.2017 10:00:00 9,6 7,8 - 0,8
13.08.2017 09:00:00 9,0 7,4 - 0,4
13.08.2017 08:00:00 8,7 7,6 - 0,0
13.08.2017 07:00:00 7,9 7,0 - 0,4
13.08.2017 06:00:00 7,6 5,9 - 0,0
13.08.2017 05:00:00 6,7 5,3 - 0,2
13.08.2017 04:00:00 8,6 5,7 - 0,0
13.08.2017 03:00:00 9,2 6,2 - 0,0
13.08.2017 02:00:00 9,7 6,0 - 0,0
13.08.2017 01:00:00 9,9 6,1 - 0,0
13.08.2017 00:00:00 9,6 6,4 - 0,0
12.08.2017 23:00:00 9,1 7,9 - 0,2
12.08.2017 22:00:00 8,9 8,2 - 1,2
12.08.2017 21:00:00 9,1 7,9 - 1,2
12.08.2017 20:00:00 11,4 6,2 - 0,0
12.08.2017 19:00:00 12,6 6,1 - 0,0
12.08.2017 18:00:00 13,4 5,8 - 0,0
12.08.2017 17:00:00 14,0 5,4 - 0,0
12.08.2017 16:00:00 14,4 6,7 - 0,0
12.08.2017 15:00:00 13,7 6,6 - 0,0
12.08.2017 14:00:00 12,3 6,7 - 0,2
12.08.2017 13:00:00 11,6 6,9 - 0,0
12.08.2017 12:00:00 12,5 8,4 - 0,0
12.08.2017 11:00:00 10,5 6,7 - 0,2
12.08.2017 10:00:00 12,0 8,3 - 0,0
12.08.2017 09:00:00 11,6 9,5 - 0,4
12.08.2017 08:00:00 9,5 8,3 - 0,0
12.08.2017 07:00:00 9,1 7,7 - 0,0
12.08.2017 06:00:00 9,2 7,3 - 0,0
12.08.2017 05:00:00 9,6 7,8 - 0,0
12.08.2017 04:00:00 10,1 8,3 - 0,0
12.08.2017 03:00:00 10,6 8,6 - 0,0
12.08.2017 02:00:00 10,4 9,2 - 0,0
12.08.2017 01:00:00 10,4 9,5 - 0,2
12.08.2017 00:00:00 10,9 10,6 - 1,2
11.08.2017 23:00:00 11,1 10,2 - 1,4
11.08.2017 22:00:00 11,9 9,6 - 0,0
11.08.2017 21:00:00 12,0 9,9 - 0,4
11.08.2017 20:00:00 12,2 9,6 - 0,0
11.08.2017 19:00:00 12,4 9,8 - 0,2
11.08.2017 18:00:00 12,7 10,1 - 0,0
11.08.2017 17:00:00 13,1 10,1 - 0,0
11.08.2017 16:00:00 13,3 10,3 - 0,4
11.08.2017 15:00:00 13,4 11,0 - 0,4
11.08.2017 14:00:00 13,7 10,9 - 0,0
11.08.2017 13:00:00 13,4 10,5 - 0,4
11.08.2017 12:00:00 14,6 12,5 - 0,6
11.08.2017 11:00:00 15,1 13,3 - 1,2
11.08.2017 10:00:00 14,2 12,8 - 1,0
11.08.2017 09:00:00 13,7 12,3 - 0,4
11.08.2017 08:00:00 13,0 12,0 - 1,4

tt = temperature
td = dewpoint
vv = visibility
rr = precipitation

Next stations